Location: El Águila
(10.4167°N, 66.7167°W)
Time: 05:46:04
(UTC+00:00)

Ariane H10-3 - Pass Details

Date: 02 October 2022
Orbit: 332 x 27338 km, 6.9° (Epoch: 26 November)

Event Time Altitude Azimuth Distance (km) Brightness Sun altitude
Rises 22:30:19 0° 270° (W) 11,693 11.6 -4.2°
Reaches altitude 10° 22:45:02 10° 262° (W) 6,453 9.0 -7.8°
Maximum altitude 22:56:23 26° 210° (SSW) 1,990 5.0 -10.6°
Drops below altitude 10° 23:00:01 10° 149° (SSE) 1,958 4.3 -11.5°
Enters shadow 23:00:50 - 140° (SE) 2,196 4.5 -11.7°
